[[{"header":{"parameterUnit":"m.s-1","parameterCategory":1,"la1":30.2991,"la2":30.254,"lo1":-89.0895,"lo2":-89.0444,"dy":0.0017,"dx":0.0017,"nx":28,"ny":28,"refTime":"2024-08-17T09:00:00:Z","depth":0,"parameterNumber":2,"parameterNumberName":"U-component_of_WINDS"},"data":[0,0,0,0,0,0,0,0,0,0,0,0,0,0,0,0,0,0,0,0,0,0,0,0,0,0,0,0,0,0,0,0,0,0,0,0,0,0,0,0,0,0,0,0,0,0,0,0,0,0,0,0,0,0,0,0,0,0,3.2452,3.2453,0,3.2579,3.2581,3.2582,3.2571,3.2569,3.2567,3.2565,3.2699,3.2705,3.271,0,0,0,0,0,0,0,0,0,0,0,0,0,3.2202,3.2207,3.2452,3.2453,3.2455,3.2579,3.2581,3.2583,3.2571,3.2569,3.2566,3.2564,3.2698,3.2704,3.271,0,0,0,0,0,0,0,0,0,0,0,0,0,3.2318,3.2208,3.2452,3.2464,3.2466,3.2579,3.2581,3.2583,3.2572,3.2569,3.2566,3.2563,3.2695,3.2703,3.2711,3.2821,0,0,3.2736,3.274,0,0,0,0,0,0,0,0,3.2312,3.2327,3.2461,3.2463,3.2466,3.2556,3.2542,3.2663,3.2572,3.2532,3.2565,3.2561,3.2654,3.2666,3.2696,3.2827,3.2833,3.2737,3.2742,3.2745,3.2748,0,0,0,0,0,0,0,3.2304,3.2322,3.2502,3.2463,3.2466,3.2465,3.2478,3.2565,3.2608,3.2535,3.2534,3.255,3.2655,3.2688,3.2699,3.2835,3.2737,3.2744,3.2749,3.2752,3.3061,3.3064,0,0,0,0,0,0,3.2292,3.2315,3.2498,3.2506,3.238,3.2471,3.2486,3.253,3.2607,3.2616,3.2552,3.2549,3.2676,3.269,3.2704,3.2836,3.2745,3.2753,3.2757,3.3058,3.3062,3.3065,0,0,0,0,0,0,3.2287,3.2309,3.2493,3.2411,3.2434,3.2479,3.2528,3.2534,3.2567,3.262,3.2628,3.2577,3.2674,3.2692,3.2791,3.284,3.2756,3.2764,3.3054,3.3059,3.3064,3.31,0,0,0,0,0,0,3.228,3.2307,3.2348,3.2412,3.2438,3.2577,3.2531,3.2539,3.2581,3.2578,3.2646,3.2654,3.2673,3.2779,3.2799,3.285,3.277,3.305,3.3056,3.3062,3.3095,3.3106,3.3116,0,0,0,0,0,3.2271,3.2354,3.235,3.2372,3.249,3.258,3.2595,3.2614,3.2585,3.2627,3.2661,3.2652,3.2832,3.2789,3.2812,3.2866,3.3046,3.3054,3.3062,3.309,3.3104,3.3115,0,0,0,0,0,0,3.2295,3.2362,3.2358,3.2465,3.2517,3.2578,3.2631,3.2628,3.269,3.2685,3.2707,3.2723,3.2822,3.2854,3.2805,3.2975,3.2936,3.2948,3.295,3.2963,3.2973,3.2962,3.2777,0,0,0,0,0,3.2313,3.2379,3.2435,3.2523,3.2549,3.2586,3.2626,3.2636,3.2691,3.2713,3.2754,3.2809,3.2878,3.2923,3.2989,3.3101,3.3115,3.3149,3.3159,3.3167,3.3177,3.3238,3.3253,3.309,3.309,3.309,0,0,3.235,3.2395,3.2436,3.2529,3.257,3.2639,3.2604,3.2679,3.273,3.2725,3.2819,3.2852,3.2915,3.302,3.3069,3.305,3.3226,3.3177,3.3183,3.3188,3.3247,3.3262,3.3276,3.3095,3.3094,3.3093,0,0,3.2452,3.2494,3.2571,3.2613,3.2676,3.27,3.2719,3.2781,3.2802,3.2897,3.2894,3.2957,3.3075,3.312,3.3158,3.3279,3.3273,3.33,3.3353,3.3412,3.3424,3.3436,3.3477,3.3492,3.331,3.331,3.331,0,3.2491,3.2593,3.2611,3.2686,3.2727,3.2725,3.2804,3.2845,3.2927,3.2955,3.2934,3.3082,3.3124,3.3239,3.3268,3.33,3.3322,3.3291,3.3421,3.3433,3.3444,3.3483,3.3499,3.3313,3.3313,3.3312,3.3312,0,3.2636,3.2707,3.2763,3.284,3.2888,3.2965,3.2996,3.3042,3.3049,3.3076,3.3173,3.3224,3.33,3.3329,3.3337,3.3446,3.3432,3.3416,3.3376,3.3461,3.3499,3.3515,3.3317,3.3316,3.3315,3.3314,0,0,3.2755,3.2842,3.2862,3.2897,3.2967,3.3023,3.31,3.3173,3.3212,3.327,3.3335,3.3435,3.342,3.3464,3.3477,3.3529,3.362,3.3506,3.3508,3.3524,3.3741,3.3751,3.3768,3.3617,3.362,3.3623,3.3735,0,3.2862,3.2997,3.3016,3.3135,3.3201,3.3201,3.3268,3.3319,3.3347,3.3408,3.3439,3.3509,3.3485,3.3511,3.3563,3.3597,3.3663,3.359,3.3678,3.368,3.3659,3.3788,3.3799,3.3903,3.375,3.3753,3.3755,0,3.3005,3.3064,3.3189,3.325,3.3279,3.3338,3.3407,3.3465,3.3524,3.354,3.3589,3.3596,3.3677,3.3636,3.3747,3.3697,3.3735,3.3758,3.3762,3.3769,3.3721,3.3797,3.3937,3.3951,3.3779,3.3777,3.3775,0,3.3076,3.3188,3.3277,3.3308,3.3381,3.3423,3.3456,3.3512,3.3554,3.3616,3.3644,3.3714,3.3752,3.3807,3.3833,3.3801,3.3943,3.3904,3.3959,3.3958,3.3986,3.3984,3.4132,3.4015,3.4015,3.4014,3.4014,0,3.3192,3.3268,3.331,3.3364,3.345,3.3473,3.3558,3.359,3.3639,3.3701,3.3707,3.3765,3.3797,3.386,3.3882,3.397,3.3988,3.4004,3.4008,3.4002,3.3999,3.4024,3.4017,3.4018,3.4018,3.4017,3.4016,0,3.3285,3.3316,3.3413,3.3475,3.3492,3.3553,3.3606,3.366,3.3688,3.3766,3.3785,3.383,3.3904,3.3936,3.4029,3.4043,3.4144,3.4144,3.4123,3.4124,3.4176,3.417,3.4343,3.4367,3.4237,3.4238,3.4239,0,3.3355,3.3413,3.3482,3.3523,3.3557,3.3623,3.3666,3.3693,3.3738,3.3809,3.3854,3.3929,3.3989,3.4109,3.415,3.422,3.4221,3.4277,3.4232,3.4223,3.4219,3.4214,3.422,3.4284,3.4286,3.4287,3.4288,0,3.3476,3.3489,3.3551,3.3619,3.367,3.3726,3.3779,3.3813,3.3848,3.3899,3.3974,3.4021,3.4115,3.4189,3.4262,3.4298,3.4298,3.4302,3.4318,3.4311,3.4295,3.4302,3.4143,3.4297,3.4296,3.4296,3.4295,3.4295,3.3559,3.361,3.3666,3.3735,3.3778,3.3829,3.3882,3.3916,3.3979,3.4056,3.4069,3.415,3.4208,3.4306,3.4344,3.4408,3.4394,3.4418,3.4424,3.4428,3.443,3.4287,3.4422,3.4422,3.4422,3.4422,3.4421,0,3.3678,3.3714,3.3778,3.3852,3.3907,3.3903,3.3963,3.4009,3.4079,3.4133,3.4192,3.4279,3.4351,3.4398,3.4471,3.4513,3.4516,3.4531,3.4527,3.4535,3.444,3.4417,3.4528,3.4528,3.4528,3.4528,3.4528,3.4528,3.3746,3.3832,3.3852,3.3961,3.3997,3.4075,3.4109,3.4156,3.4199,3.4295,3.4355,3.4385,3.4436,3.4513,3.4579,3.4591,3.4617,3.4633,3.4644,3.4553,3.4542,3.4531,3.451,3.4639,3.4639,3.4734,3.4735,3.4735]},{"header":{"parameterUnit":"m.s-1","parameterCategory":1,"la1":30.2991,"la2":30.254,"lo1":-89.0895,"lo2":-89.0444,"dy":0.0017,"dx":0.0017,"nx":28,"ny":28,"refTime":"2024-08-17T09:00:00:Z","depth":0,"parameterNumber":3,"parameterNumberName":"V-component_of_WINDS"},"data":[0,0,0,0,0,0,0,0,0,0,0,0,0,0,0,0,0,0,0,0,0,0,0,0,0,0,0,0,0,0,0,0,0,0,0,0,0,0,0,0,0,0,0,0,0,0,0,0,0,0,0,0,0,0,0,0,0,0,5.6127,5.6129,0,5.6304,5.6306,5.6308,5.6307,5.6305,5.6303,5.6301,5.6471,5.6478,5.6484,0,0,0,0,0,0,0,0,0,0,0,0,0,5.5779,5.5785,5.6127,5.6129,5.6131,5.6303,5.6306,5.6308,5.6308,5.6305,5.6302,5.63,5.6469,5.6477,5.6485,0,0,0,0,0,0,0,0,0,0,0,0,0,5.594,5.5787,5.6126,5.6152,5.6156,5.6303,5.6306,5.6309,5.6308,5.6305,5.6302,5.6298,5.6466,5.6476,5.6486,5.6616,0,0,5.6516,5.6521,0,0,0,0,0,0,0,0,5.5931,5.5953,5.6146,5.6151,5.6155,5.628,5.6246,5.6411,5.6309,5.625,5.6301,5.6297,5.641,5.6424,5.6464,5.6624,5.6631,5.6517,5.6523,5.6528,5.653,0,0,0,0,0,0,0,5.592,5.5945,5.6196,5.6149,5.6155,5.6151,5.617,5.6277,5.6346,5.6255,5.6256,5.6277,5.6411,5.6455,5.6468,5.6633,5.6517,5.6526,5.6532,5.6536,5.6906,5.6909,0,0,0,0,0,0,5.5905,5.5936,5.6191,5.6202,5.6033,5.616,5.6182,5.6243,5.6345,5.6358,5.628,5.6276,5.6439,5.6457,5.6474,5.6632,5.6528,5.6537,5.6543,5.6902,5.6907,5.6911,0,0,0,0,0,0,5.5897,5.5927,5.6184,5.6069,5.6101,5.617,5.6239,5.6249,5.6292,5.6364,5.6376,5.6312,5.6437,5.646,5.6581,5.6638,5.6541,5.6551,5.6897,5.6903,5.6909,5.6949,0,0,0,0,0,0,5.5887,5.5925,5.5977,5.607,5.6108,5.6291,5.6243,5.6255,5.6311,5.6308,5.6397,5.6409,5.6437,5.6566,5.6591,5.665,5.6558,5.6892,5.69,5.6907,5.6943,5.6955,5.6966,0,0,0,0,0,5.5875,5.5979,5.598,5.6011,5.6175,5.6294,5.6315,5.6348,5.6315,5.6367,5.6413,5.6406,5.6628,5.6578,5.6606,5.6669,5.6889,5.6898,5.6906,5.6938,5.6953,5.6966,0,0,0,0,0,0,5.5888,5.5992,5.5994,5.6132,5.6205,5.6294,5.636,5.6363,5.6443,5.6437,5.6471,5.6491,5.6611,5.6652,5.6595,5.6799,5.6754,5.6769,5.6768,5.6783,5.6795,5.6782,5.6567,0,0,0,0,0,5.5907,5.5998,5.6083,5.6197,5.6234,5.6291,5.6343,5.6363,5.6437,5.6467,5.6522,5.6592,5.6677,5.6732,5.6815,5.6949,5.6967,5.7006,5.7017,5.7026,5.7038,5.7111,5.7128,5.6939,5.6939,5.6939,0,0,5.5947,5.6016,5.607,5.6201,5.626,5.635,5.6316,5.6413,5.648,5.648,5.6599,5.6641,5.6721,5.6849,5.6907,5.6887,5.7095,5.7038,5.7044,5.7051,5.7121,5.7139,5.7155,5.6945,5.6944,5.6943,0,0,5.6067,5.6129,5.623,5.629,5.638,5.6417,5.6441,5.6531,5.656,5.668,5.6682,5.676,5.6906,5.6963,5.7011,5.7152,5.7148,5.7178,5.7238,5.7308,5.7323,5.7336,5.7385,5.7403,5.7189,5.7189,5.719,0,5.6104,5.6244,5.6281,5.638,5.6436,5.6444,5.6546,5.66,5.6711,5.6748,5.6724,5.6909,5.6963,5.7103,5.7138,5.7177,5.7203,5.7167,5.7319,5.7332,5.7345,5.7392,5.7411,5.7192,5.7192,5.7192,5.7191,0,5.6285,5.6382,5.6452,5.6563,5.6627,5.6726,5.6775,5.6835,5.6848,5.6887,5.7007,5.7073,5.7169,5.7204,5.7216,5.7346,5.733,5.7312,5.7267,5.7366,5.741,5.7429,5.7197,5.7196,5.7195,5.7194,0,0,5.6417,5.6548,5.6573,5.6623,5.6723,5.6797,5.6895,5.6992,5.7042,5.7118,5.7199,5.7323,5.7307,5.7362,5.7381,5.7442,5.7548,5.7417,5.7419,5.7438,5.7693,5.7705,5.7726,5.7546,5.755,5.7553,5.7686,0,5.6546,5.6725,5.6761,5.6914,5.7003,5.7012,5.7097,5.7166,5.7204,5.7282,5.7323,5.741,5.7384,5.7416,5.7478,5.7522,5.76,5.7513,5.7619,5.7623,5.7599,5.7749,5.7763,5.7885,5.7703,5.7706,5.7709,0,5.6721,5.6805,5.6968,5.7057,5.7095,5.7171,5.7263,5.7339,5.7415,5.7438,5.75,5.7512,5.7611,5.7562,5.7697,5.7638,5.7683,5.7711,5.7716,5.7727,5.7671,5.7763,5.7925,5.7943,5.7737,5.7734,5.7732,0,5.6799,5.6953,5.7071,5.7113,5.7219,5.7272,5.7318,5.7392,5.7448,5.7527,5.7563,5.765,5.7698,5.7764,5.7798,5.776,5.793,5.7885,5.795,5.7949,5.7985,5.7982,5.8156,5.8015,5.8015,5.8015,5.8014,0,5.694,5.7039,5.7108,5.718,5.729,5.7329,5.7436,5.748,5.7546,5.7625,5.7637,5.7709,5.7751,5.7828,5.7855,5.7962,5.7983,5.8002,5.8008,5.8001,5.7999,5.8031,5.8023,5.802,5.8019,5.8018,5.8017,0,5.7045,5.7096,5.7225,5.7316,5.734,5.7418,5.7493,5.7562,5.7601,5.77,5.7725,5.7785,5.7877,5.7918,5.803,5.8048,5.817,5.817,5.8145,5.8147,5.821,5.8203,5.841,5.8438,5.8279,5.8281,5.8282,0,5.7131,5.7209,5.7308,5.7364,5.7412,5.7501,5.7559,5.7599,5.7658,5.7752,5.7808,5.7902,5.7979,5.8124,5.8175,5.8261,5.8262,5.8329,5.8275,5.8265,5.8262,5.8257,5.8264,5.8338,5.834,5.8341,5.8342,0,5.7278,5.7299,5.7385,5.7479,5.7549,5.7624,5.7697,5.7741,5.7792,5.7857,5.7954,5.8014,5.813,5.8221,5.831,5.8353,5.8355,5.8359,5.8378,5.8371,5.8354,5.8363,5.8171,5.8354,5.8352,5.8352,5.8351,5.835,5.7376,5.7445,5.7526,5.7621,5.7681,5.7749,5.7819,5.7867,5.795,5.805,5.8068,5.817,5.8243,5.8363,5.841,5.8487,5.8471,5.8499,5.8506,5.8513,5.8516,5.8343,5.8504,5.8503,5.8503,5.8503,5.8503,0,5.7522,5.7575,5.7662,5.7766,5.784,5.784,5.7921,5.7981,5.8072,5.8142,5.8218,5.8328,5.8417,5.8475,5.8564,5.8615,5.8618,5.8637,5.8633,5.8643,5.8526,5.85,5.8633,5.8633,5.8633,5.8633,5.8633,5.8633,5.7607,5.7723,5.7754,5.79,5.7951,5.8055,5.8101,5.8163,5.8219,5.8343,5.8418,5.8457,5.8522,5.8615,5.8696,5.871,5.8742,5.8761,5.8775,5.8665,5.8651,5.8638,5.8614,5.8768,5.8768,5.8885,5.8886,5.8887]}]]